| time (UTC) | temp C | wind direction | speed KPH | gust KPH | rain 1hr cm | rain 24hr cm | rain mn cm | humidity % | barometer mb |
| 20260906124614 | 15 | 52 | 9.7 | 0.0 | 0.00 | 0.00 | 0.00 | 91 | 991.7 |
| 20260906123123 | 14 | 52 | 9.7 | 0.0 | 0.00 | 0.00 | 0.00 | 91 | 991.7 |
| 20260906121613 | 13 | 50 | 8.0 | 0.0 | 0.00 | 0.00 | 0.00 | 91 | 991.7 |
| 20260906120108 | 13 | 48 | 8.0 | 0.0 | 0.00 | 0.00 | 0.00 | 91 | 991.7 |
| 20260906114615 | 12 | 49 | 8.0 | 0.0 | 0.00 | 0.00 | 0.00 | 88 | 990.1 |
| 20260906113113 | 12 | 43 | 6.4 | 0.0 | 0.00 | 0.00 | 0.00 | 85 | 991.5 |
| 20260906111613 | 12 | 49 | 6.4 | 0.0 | 0.00 | 0.00 | 0.00 | 85 | 991.5 |
| 20260906110116 | 13 | 56 | 6.4 | 0.0 | 0.00 | 0.00 | 0.00 | 85 | 991.5 |
| 20260906104614 | 13 | 49 | 6.4 | 0.0 | 0.00 | 0.00 | 0.00 | 84 | 990.7 |
| 20260906103117 | 13 | 51 | 6.4 | 0.0 | 0.00 | 0.00 | 0.00 | 85 | 991.5 |
| 20260906101608 | 13 | 49 | 6.4 | 0.0 | 0.00 | 0.00 | 0.00 | 85 | 991.5 |
| 20260906100119 | 13 | 49 | 6.4 | 0.0 | 0.00 | 0.00 | 0.00 | 85 | 991.5 |
| 20260906094615 | 13 | 47 | 6.4 | 0.0 | 0.00 | 0.00 | 0.00 | 86 | 990.7 |
| 20260906093116 | 13 | 41 | 6.4 | 0.0 | 0.00 | 0.00 | 0.00 | 83 | 991.4 |
| 20260906091613 | 13 | 43 | 6.4 | 0.0 | 0.00 | 0.00 | 0.00 | 83 | 991.4 |
| 20260906090119 | 13 | 49 | 6.4 | 0.0 | 0.00 | 0.00 | 0.00 | 83 | 991.4 |
| 20260906084616 | 14 | 49 | 6.4 | 0.0 | 0.00 | 0.00 | 0.00 | 86 | 990.3 |
| 20260906083113 | 14 | 47 | 6.4 | 0.0 | 0.00 | 0.00 | 0.00 | 79 | 990.9 |
| 20260906081611 | 15 | 53 | 8.0 | 0.0 | 0.00 | 0.00 | 0.00 | 79 | 990.9 |
| 20260906080135 | 15 | 55 | 8.0 | 0.0 | 0.00 | 0.00 | 0.00 | 79 | 990.6 |
| 20260906074614 | 15 | 56 | 8.0 | 0.0 | 0.00 | 0.00 | 0.00 | 78 | 989.7 |
| 20260906073113 | 15 | 54 | 8.0 | 0.0 | 0.00 | 0.00 | 0.00 | 78 | 989.7 |
| 20260906071615 | 15 | 59 | 6.4 | 0.0 | 0.00 | 0.00 | 0.00 | 78 | 989.7 |
| 20260906070117 | 15 | 66 | 6.4 | 0.0 | 0.00 | 0.00 | 0.00 | 78 | 989.7 |
| 20260906064624 | 16 | 69 | 8.0 | 0.0 | 0.00 | 0.00 | 0.00 | 76 | 989.3 |
| 20260906063119 | 16 | 63 | 6.4 | 0.0 | 0.00 | 0.00 | 0.00 | 71 | 989.7 |
| 20260906061613 | 16 | 60 | 8.0 | 0.0 | 0.00 | 0.00 | 0.00 | 71 | 989.7 |
| 20260906060118 | 16 | 60 | 8.0 | 0.0 | 0.00 | 0.00 | 0.00 | 71 | 989.7 |
| 20260906054615 | 16 | 63 | 8.0 | 0.0 | 0.00 | 0.00 | 0.00 | 68 | 989.8 |
| 20260906053110 | 16 | 59 | 8.0 | 0.0 | 0.00 | 0.00 | 0.00 | 71 | 989.5 |
| 20260906051614 | 17 | 56 | 8.0 | 0.0 | 0.00 | 0.00 | 0.00 | 71 | 989.5 |
| 20260906050117 | 17 | 61 | 8.0 | 0.0 | 0.00 | 0.00 | 0.00 | 71 | 989.5 |
| 20260906044614 | 17 | 67 | 8.0 | 0.0 | 0.00 | 0.00 | 0.00 | 73 | 989.4 |
| 20260906043120 | 17 | 62 | 8.0 | 0.0 | 0.00 | 0.00 | 0.00 | 68 | 989.3 |
| 20260906041613 | 17 | 58 | 8.0 | 0.0 | 0.00 | 0.00 | 0.00 | 68 | 989.3 |
| 20260906040109 | 17 | 59 | 8.0 | 0.0 | 0.00 | 0.00 | 0.00 | 68 | 989.3 |
| 20260906034608 | 18 | 61 | 9.7 | 0.0 | 0.00 | 0.00 | 0.00 | 71 | 989.2 |
| 20260906033115 | 18 | 61 | 8.0 | 0.0 | 0.00 | 0.00 | 0.00 | 72 | 989.7 |
| 20260906031613 | 18 | 59 | 9.7 | 0.0 | 0.00 | 0.00 | 0.00 | 72 | 989.7 |
| 20260906030116 | 19 | 57 | 9.7 | 0.0 | 0.00 | 0.00 | 0.00 | 72 | 989.7 |
| 20260906024613 | 19 | 57 | 9.7 | 0.0 | 0.00 | 0.00 | 0.00 | 74 | 988.2 |
| 20260906023109 | 19 | 57 | 9.7 | 0.0 | 0.00 | 0.00 | 0.00 | 74 | 988.7 |
| 20260906021607 | 20 | 56 | 9.7 | 0.0 | 0.00 | 0.00 | 0.00 | 74 | 988.7 |
| 20260906020106 | 20 | 55 | 9.7 | 0.0 | 0.00 | 0.00 | 0.00 | 74 | 988.7 |
| 20260906015120 | 20 | 50 | 8.0 | 0.0 | 0.00 | 0.00 | 0.00 | 72 | 987.9 |
| 20260906013111 | 20 | 43 | 8.0 | 0.0 | 0.00 | 0.00 | 0.00 | 72 | 987.9 |
| 20260906011612 | 20 | 49 | 11.3 | 0.0 | 0.00 | 0.00 | 0.00 | 72 | 987.9 |
| 20260906010127 | 21 | 47 | 11.3 | 0.0 | 0.00 | 0.00 | 0.00 | 72 | 987.9 |
| 20260906004611 | 20 | 52 | 8.0 | 0.0 | 0.00 | 0.00 | 0.00 | 77 | 988.1 |
| 20260906003119 | 21 | 29 | 6.4 | 0.0 | 0.00 | 0.00 | 0.00 | 75 | 988.1 |
| 20260906001611 | 21 | 36 | 6.4 | 0.0 | 0.00 | 0.00 | 0.00 | 75 | 988.1 |
| 20260906000121 | 21 | 28 | 6.4 | 0.0 | 0.00 | 0.00 | 0.00 | 75 | 988.1 |
| 20260905234617 | 22 | 28 | 6.4 | 0.0 | 0.00 | 0.00 | 0.00 | 67 | 987.9 |
| 20260905233113 | 22 | 30 | 6.4 | 0.0 | 0.00 | 0.00 | 0.00 | 67 | 988.0 |
| 20260905231616 | 23 | 43 | 8.0 | 0.0 | 0.00 | 0.00 | 0.00 | 67 | 988.0 |
| 20260905230117 | 23 | 48 | 8.0 | 0.0 | 0.00 | 0.00 | 0.00 | 67 | 988.0 |
| 20260905224617 | 23 | 49 | 9.7 | 0.0 | 0.00 | 0.00 | 0.00 | 70 | 987.7 |
| 20260905223109 | 24 | 48 | 9.7 | 0.0 | 0.00 | 0.00 | 0.00 | 69 | 988.2 |
| 20260905221611 | 24 | 54 | 9.7 | 0.0 | 0.00 | 0.00 | 0.00 | 69 | 988.2 |
| 20260905220110 | 24 | 54 | 9.7 | 0.0 | 0.00 | 0.00 | 0.00 | 69 | 988.2 |
| 20260905214617 | 24 | 49 | 11.3 | 0.0 | 0.00 | 0.00 | 0.00 | 71 | 988.1 |
| 20260905213118 | 24 | 49 | 11.3 | 0.0 | 0.00 | 0.00 | 0.00 | 74 | 988.4 |
| 20260905211611 | 23 | 47 | 8.0 | 0.0 | 0.00 | 0.00 | 0.00 | 74 | 988.3 |
| 20260905210118 | 23 | 45 | 9.7 | 0.0 | 0.00 | 0.00 | 0.00 | 74 | 988.3 |
| 20260905204617 | 23 | 46 | 11.3 | 0.0 | 0.00 | 0.00 | 0.00 | 78 | 987.4 |
| 20260905203116 | 23 | 48 | 12.9 | 0.0 | 0.00 | 0.00 | 0.00 | 78 | 987.7 |
| 20260905201616 | 22 | 55 | 11.3 | 0.0 | 0.00 | 0.00 | 0.00 | 78 | 987.7 |
| 20260905200123 | 23 | 50 | 11.3 | 0.0 | 0.00 | 0.00 | 0.00 | 78 | 987.7 |
| 20260905194617 | 23 | 45 | 11.3 | 0.0 | 0.00 | 0.00 | 0.00 | 78 | 987.9 |
| 20260905193118 | 23 | 43 | 11.3 | 0.0 | 0.00 | 0.00 | 0.00 | 78 | 987.9 |
| 20260905191610 | 23 | 38 | 8.0 | 0.0 | 0.00 | 0.00 | 0.00 | 78 | 987.9 |
| 20260905190125 | 23 | 43 | 6.4 | 0.0 | 0.00 | 0.00 | 0.00 | 78 | 987.9 |
| 20260905184618 | 23 | 49 | 8.0 | 0.0 | 0.00 | 0.00 | 0.00 | 80 | 988.7 |
| 20260905183117 | 24 | 53 | 8.0 | 0.0 | 0.00 | 0.00 | 0.00 | 75 | 988.7 |
| 20260905181616 | 25 | 42 | 8.0 | 0.0 | 0.00 | 0.00 | 0.00 | 75 | 988.7 |
| 20260905180118 | 25 | 58 | 8.0 | 0.0 | 0.00 | 0.00 | 0.00 | 75 | 988.7 |
| 20260905174616 | 24 | 62 | 9.7 | 0.0 | 0.00 | 0.00 | 0.00 | 80 | 988.9 |
| 20260905173117 | 23 | 58 | 9.7 | 0.0 | 0.00 | 0.00 | 0.00 | 79 | 988.1 |
| 20260905171617 | 23 | 61 | 8.0 | 0.0 | 0.00 | 0.00 | 0.00 | 79 | 988.1 |
| 20260905170127 | 23 | 68 | 8.0 | 0.0 | 0.00 | 0.00 | 0.00 | 79 | 988.1 |
| 20260905164617 | 23 | 67 | 6.4 | 0.0 | 0.00 | 0.00 | 0.00 | 85 | 988.6 |
| 20260905163117 | 22 | 66 | 6.4 | 0.0 | 0.00 | 0.00 | 0.00 | 82 | 987.4 |
| 20260905161614 | 23 | 71 | 6.4 | 0.0 | 0.00 | 0.00 | 0.00 | 82 | 987.5 |
| 20260905160110 | 23 | 75 | 8.0 | 0.0 | 0.00 | 0.00 | 0.00 | 82 | 987.5 |
| 20260905154610 | 22 | 80 | 6.4 | 0.0 | 0.00 | 0.00 | 0.00 | 85 | 988.7 |
| 20260905153116 | 22 | 72 | 8.0 | 0.0 | 0.00 | 0.00 | 0.00 | 86 | 987.5 |
| 20260905151610 | 22 | 56 | 9.7 | 0.0 | 0.00 | 0.00 | 0.00 | 86 | 987.5 |
| 20260905150111 | 22 | 60 | 9.7 | 0.0 | 0.00 | 0.00 | 0.00 | 86 | 987.5 |
| 20260905144624 | 21 | 61 | 8.0 | 0.0 | 0.00 | 0.00 | 0.00 | 89 | 988.0 |
| 20260905143107 | 21 | 58 | 8.0 | 0.0 | 0.00 | 0.00 | 0.00 | 87 | 987.6 |
| 20260905141616 | 22 | 50 | 9.7 | 0.0 | 0.00 | 0.00 | 0.00 | 87 | 987.6 |
| 20260905140117 | 22 | 54 | 9.7 | 0.0 | 0.00 | 0.00 | 0.00 | 87 | 987.6 |
| 20260905134616 | 22 | 56 | 9.7 | 0.0 | 0.00 | 0.00 | 0.00 | 95 | 987.0 |
| 20260905133117 | 21 | 65 | 8.0 | 0.0 | 0.00 | 0.00 | 0.00 | 95 | 987.0 |
| 20260905131611 | 21 | 53 | 8.0 | 0.0 | 0.00 | 0.00 | 0.00 | 95 | 986.9 |
| 20260905130119 | 21 | 54 | 9.7 | 0.0 | 0.00 | 0.00 | 0.00 | 95 | 986.9 |